Time,TemperatureF,DewpointF,PressureIn,WindDirection,WindDirectionDegrees,WindSpeedMPH,WindSpeedGustMPH,Humidity,HourlyPrecipIn,Conditions,Clouds,dailyrainin,SoftwareType,DateUTC
2013-10-18 00:03:00,53.2,30.1,29.72,ENE,61,3.0,5.0,41,0.00,,,0.00,Wunderground v.1.15,2013-10-18 04:03:00,
2013-10-18 00:08:00,53.2,30.1,29.71,ENE,59,3.0,6.0,41,0.00,,,0.00,Wunderground v.1.15,2013-10-18 04:08:00,
2013-10-18 00:13:00,53.2,30.1,29.71,ENE,69,4.0,6.0,41,0.00,,,0.00,Wunderground v.1.15,2013-10-18 04:13:00,
2013-10-18 00:18:00,53.3,30.2,29.71,ENE,57,4.0,4.0,41,0.00,,,0.00,Wunderground v.1.15,2013-10-18 04:18:00,
2013-10-18 00:23:00,53.4,30.3,29.71,NE,55,3.0,4.0,41,0.00,,,0.00,Wunderground v.1.15,2013-10-18 04:23:00,
2013-10-18 00:33:00,53.5,29.7,29.71,NE,34,2.0,3.0,40,0.00,,,0.00,Wunderground v.1.15,2013-10-18 04:33:00,
2013-10-18 00:43:00,53.5,29.7,29.71,NE,53,3.0,6.0,40,0.00,,,0.00,Wunderground v.1.15,2013-10-18 04:43:00,
2013-10-18 00:48:00,53.5,29.7,29.71,NE,44,4.0,4.0,40,0.00,,,0.00,Wunderground v.1.15,2013-10-18 04:48:00,
2013-10-18 00:53:00,53.4,30.3,29.71,ENE,57,4.0,4.0,41,0.00,,,0.00,Wunderground v.1.15,2013-10-18 04:53:00,
2013-10-18 00:58:00,53.4,29.7,29.71,ENE,59,3.0,3.0,40,0.00,,,0.00,Wunderground v.1.15,2013-10-18 04:58:00,
2013-10-18 01:08:00,53.4,29.7,29.71,NE,53,3.0,3.0,40,0.00,,,0.00,Wunderground v.1.15,2013-10-18 05:08:00,
2013-10-18 01:18:00,53.4,29.7,29.70,ENE,61,2.0,3.0,40,0.00,,,0.00,Wunderground v.1.15,2013-10-18 05:18:00,
2013-10-18 01:23:00,53.4,29.7,29.71,NE,53,2.0,3.0,40,0.00,,,0.00,Wunderground v.1.15,2013-10-18 05:23:00,
2013-10-18 01:28:00,53.4,29.7,29.71,ENE,72,1.0,1.0,40,0.00,,,0.00,Wunderground v.1.15,2013-10-18 05:28:00,
2013-10-18 01:38:00,53.5,29.7,29.73,North,355,0.0,0.0,40,0.00,,,0.00,Wunderground v.1.15,2013-10-18 05:38:00,
2013-10-18 01:43:00,53.5,29.7,29.73,NW,324,0.0,0.0,40,0.00,,,0.00,Wunderground v.1.15,2013-10-18 05:43:00,
2013-10-18 01:48:00,53.5,29.7,29.74,NNW,342,0.0,0.0,40,0.00,,,0.00,Wunderground v.1.15,2013-10-18 05:48:00,
2013-10-18 01:53:00,53.5,29.7,29.74,WNW,302,0.0,0.0,40,0.00,,,0.00,Wunderground v.1.15,2013-10-18 05:53:00,
2013-10-18 01:58:00,53.5,29.7,29.74,NNW,330,0.0,0.0,40,0.00,,,0.00,Wunderground v.1.15,2013-10-18 05:58:00,
2013-10-18 02:08:00,53.6,29.8,29.73,ENE,63,1.0,2.0,40,0.00,,,0.00,Wunderground v.1.15,2013-10-18 06:08:00,
2013-10-18 02:18:00,53.6,29.8,29.72,ENE,58,2.0,3.0,40,0.00,,,0.00,Wunderground v.1.15,2013-10-18 06:18:00,
2013-10-18 02:23:00,53.5,29.7,29.72,ENE,69,3.0,3.0,40,0.00,,,0.00,Wunderground v.1.15,2013-10-18 06:23:00,
2013-10-18 02:33:00,53.6,29.8,29.70,ENE,61,4.0,5.0,40,0.00,,,0.00,Wunderground v.1.15,2013-10-18 06:33:00,
2013-10-18 02:38:00,53.6,29.8,29.69,ENE,58,4.0,4.0,40,0.00,,,0.00,Wunderground v.1.15,2013-10-18 06:38:00,
2013-10-18 02:43:00,53.6,29.8,29.69,NE,55,3.0,4.0,40,0.00,,,0.00,Wunderground v.1.15,2013-10-18 06:43:00,
2013-10-18 02:48:00,53.7,29.9,29.68,ENE,67,3.0,5.0,40,0.00,,,0.00,Wunderground v.1.15,2013-10-18 06:48:00,
2013-10-18 02:53:00,53.6,30.4,29.68,ENE,59,4.0,6.0,41,0.00,,,0.01,Wunderground v.1.15,2013-10-18 06:53:00,
2013-10-18 03:03:00,53.6,29.8,29.68,ENE,57,4.0,5.0,40,0.10,,,0.02,Wunderground v.1.15,2013-10-18 07:03:00,
2013-10-18 03:08:00,53.6,29.8,29.67,NE,51,3.0,4.0,40,0.06,,,0.02,Wunderground v.1.15,2013-10-18 07:08:00,
2013-10-18 03:13:00,53.5,30.4,29.66,ENE,66,3.0,4.0,41,0.04,,,0.02,Wunderground v.1.15,2013-10-18 07:13:00,
2013-10-18 03:23:00,53.5,30.4,29.66,ENE,62,5.0,7.0,41,0.04,,,0.03,Wunderground v.1.15,2013-10-18 07:23:00,
2013-10-18 03:28:00,53.5,30.4,29.65,ENE,62,5.0,5.0,41,0.04,,,0.03,Wunderground v.1.15,2013-10-18 07:28:00,
2013-10-18 03:38:00,53.4,30.3,29.65,NNW,348,2.0,5.0,41,0.00,,,0.03,Wunderground v.1.15,2013-10-18 07:38:00,
2013-10-18 03:48:00,53.6,30.4,29.65,ENE,59,4.0,5.0,41,0.00,,,0.03,Wunderground v.1.15,2013-10-18 07:48:00,
2013-10-18 03:53:00,53.5,30.4,29.65,ENE,61,4.0,5.0,41,0.00,,,0.03,Wunderground v.1.15,2013-10-18 07:53:00,
2013-10-18 03:58:00,53.6,30.4,29.65,NE,55,4.0,4.0,41,0.00,,,0.03,Wunderground v.1.15,2013-10-18 07:58:00,
2013-10-18 04:08:00,53.7,30.5,29.65,NE,55,3.0,3.0,41,0.00,,,0.03,Wunderground v.1.15,2013-10-18 08:08:00,
2013-10-18 04:13:00,53.7,30.5,29.65,ENE,70,3.0,3.0,41,0.00,,,0.03,Wunderground v.1.15,2013-10-18 08:13:00,
2013-10-18 04:23:00,53.9,31.3,29.65,ENE,63,3.0,4.0,42,0.00,,,0.03,Wunderground v.1.15,2013-10-18 08:23:00,
2013-10-18 04:33:00,54.0,31.4,29.64,NNE,32,3.0,4.0,42,0.00,,,0.03,Wunderground v.1.15,2013-10-18 08:33:00,
2013-10-18 04:38:00,54.0,31.4,29.64,NNE,29,1.0,1.0,42,0.00,,,0.03,Wunderground v.1.15,2013-10-18 08:38:00,
2013-10-18 04:43:00,54.0,31.4,29.64,ENE,70,0.0,1.0,42,0.00,,,0.03,Wunderground v.1.15,2013-10-18 08:43:00,
2013-10-18 04:53:00,54.2,31.6,29.64,ENE,67,3.0,4.0,42,0.00,,,0.03,Wunderground v.1.15,2013-10-18 08:53:00,
2013-10-18 05:03:00,55.0,33.5,29.63,ENE,66,8.0,8.0,44,0.00,,,0.03,Wunderground v.1.15,2013-10-18 09:03:00,
2013-10-18 05:08:00,55.1,33.6,29.63,ENE,73,9.0,9.0,44,0.00,,,0.03,Wunderground v.1.15,2013-10-18 09:08:00,
2013-10-18 05:18:00,55.4,33.8,29.62,ENE,74,6.0,6.0,44,0.00,,,0.03,Wunderground v.1.15,2013-10-18 09:18:00,
2013-10-18 05:23:00,55.5,34.5,29.63,East,88,5.0,6.0,45,0.00,,,0.03,Wunderground v.1.15,2013-10-18 09:23:00,
2013-10-18 05:28:00,55.5,34.5,29.62,East,84,3.0,3.0,45,0.00,,,0.03,Wunderground v.1.15,2013-10-18 09:28:00,
2013-10-18 05:33:00,55.8,34.8,29.62,East,82,2.0,3.0,45,0.00,,,0.03,Wunderground v.1.15,2013-10-18 09:33:00,
2013-10-18 05:38:00,55.9,34.8,29.62,East,79,1.0,1.0,45,0.00,,,0.03,Wunderground v.1.15,2013-10-18 09:38:00,
2013-10-18 05:48:00,55.9,34.8,29.61,ENE,68,0.0,0.0,45,0.00,,,0.03,Wunderground v.1.15,2013-10-18 09:48:00,
2013-10-18 05:58:00,56.1,35.0,29.61,WNW,288,0.0,0.0,45,0.00,,,0.04,Wunderground v.1.15,2013-10-18 09:58:00,
2013-10-18 06:08:00,56.1,35.0,29.60,East,82,0.0,0.0,45,0.27,,,0.09,Wunderground v.1.15,2013-10-18 10:08:00,
2013-10-18 06:18:00,56.2,35.1,29.60,East,82,0.0,0.0,45,0.18,,,0.12,Wunderground v.1.15,2013-10-18 10:18:00,
2013-10-18 06:23:00,56.2,35.1,29.60,ENE,69,0.0,0.0,45,0.22,,,0.15,Wunderground v.1.15,2013-10-18 10:23:00,
2013-10-18 06:33:00,56.4,35.3,29.59,East,82,0.0,2.0,45,0.09,,,0.16,Wunderground v.1.15,2013-10-18 10:33:00,
2013-10-18 06:38:00,56.5,35.4,29.59,East,80,1.0,2.0,45,0.07,,,0.16,Wunderground v.1.15,2013-10-18 10:38:00,
2013-10-18 06:43:00,56.5,35.4,29.58,ENE,76,2.0,2.0,45,0.06,,,0.17,Wunderground v.1.15,2013-10-18 10:43:00,
2013-10-18 06:48:00,56.6,35.5,29.58,East,84,1.0,2.0,45,0.06,,,0.17,Wunderground v.1.15,2013-10-18 10:48:00,
2013-10-18 06:58:00,56.8,35.7,29.58,ESE,113,1.0,1.0,45,0.06,,,0.18,Wunderground v.1.15,2013-10-18 10:58:00,
2013-10-18 07:03:00,56.8,35.7,29.58,SE,140,1.0,2.0,45,0.04,,,0.19,Wunderground v.1.15,2013-10-18 11:03:00,
2013-10-18 07:08:00,57.0,36.4,29.57,ESE,121,2.0,6.0,46,0.20,,,0.20,Wunderground v.1.15,2013-10-18 11:08:00,
2013-10-18 07:18:00,57.3,36.7,29.57,SSE,163,2.0,2.0,46,0.10,,,0.22,Wunderground v.1.15,2013-10-18 11:18:00,
2013-10-18 07:23:00,57.4,36.8,29.57,SSE,163,3.0,4.0,46,0.10,,,0.23,Wunderground v.1.15,2013-10-18 11:23:00,
2013-10-18 07:33:00,57.5,36.9,29.57,East,101,2.0,4.0,46,0.08,,,0.24,Wunderground v.1.15,2013-10-18 11:33:00,
2013-10-18 07:38:00,57.6,37.0,29.57,SSE,162,3.0,4.0,46,0.05,,,0.24,Wunderground v.1.15,2013-10-18 11:38:00,
2013-10-18 07:48:00,58.0,37.9,29.57,SE,129,2.0,2.0,47,0.00,,,0.25,Wunderground v.1.15,2013-10-18 11:48:00,
2013-10-18 07:53:00,58.4,38.2,29.57,SSE,163,5.0,11.0,47,0.00,,,0.25,Wunderground v.1.15,2013-10-18 11:53:00,
2013-10-18 07:58:00,58.6,39.0,29.57,SE,144,8.0,8.0,48,0.00,,,0.25,Wunderground v.1.15,2013-10-18 11:58:00,
2013-10-18 08:03:00,58.6,39.0,29.57,ESE,111,8.0,8.0,48,0.00,,,0.25,Wunderground v.1.15,2013-10-18 12:03:00,
2013-10-18 08:13:00,58.9,39.2,29.57,SW,217,6.0,9.0,48,0.00,,,0.25,Wunderground v.1.15,2013-10-18 12:13:00,
2013-10-18 08:23:00,59.1,39.4,29.57,SE,134,5.0,13.0,48,0.00,,,0.25,Wunderground v.1.15,2013-10-18 12:23:00,
2013-10-18 08:33:00,59.4,39.7,29.57,SSW,199,9.0,14.0,48,0.00,,,0.25,Wunderground v.1.15,2013-10-18 12:33:00,
2013-10-18 08:38:00,59.3,39.6,29.57,South,182,10.0,10.0,48,0.00,,,0.25,Wunderground v.1.15,2013-10-18 12:38:00,
2013-10-18 08:43:00,59.4,39.7,29.57,South,190,8.0,10.0,48,0.00,,,0.25,Wunderground v.1.15,2013-10-18 12:43:00,
2013-10-18 08:53:00,59.5,39.2,29.57,SSW,194,6.0,10.0,47,0.00,,,0.25,Wunderground v.1.15,2013-10-18 12:53:00,
2013-10-18 09:03:00,59.5,39.2,29.57,South,173,5.0,10.0,47,0.00,,,0.25,Wunderground v.1.15,2013-10-18 13:03:00,
2013-10-18 09:08:00,59.6,38.8,29.57,South,189,5.0,5.0,46,0.00,,,0.25,Wunderground v.1.15,2013-10-18 13:08:00,
2013-10-18 09:13:00,59.6,38.2,29.57,South,178,5.0,7.0,45,0.00,,,0.25,Wunderground v.1.15,2013-10-18 13:13:00,
2013-10-18 09:23:00,59.6,37.1,29.57,SSW,211,4.0,4.0,43,0.00,,,0.25,Wunderground v.1.15,2013-10-18 13:23:00,
2013-10-18 09:28:00,59.5,37.0,29.57,South,169,4.0,5.0,43,0.00,,,0.25,Wunderground v.1.15,2013-10-18 13:28:00,
2013-10-18 09:38:00,59.5,35.8,29.57,SW,227,2.0,3.0,41,0.00,,,0.25,Wunderground v.1.15,2013-10-18 13:38:00,
2013-10-18 09:48:00,59.6,34.6,29.57,SSE,159,2.0,2.0,39,0.00,,,0.25,Wunderground v.1.15,2013-10-18 13:48:00,
2013-10-18 09:53:00,59.9,34.9,29.57,SSW,205,2.0,2.0,39,0.00,,,0.25,Wunderground v.1.15,2013-10-18 13:53:00,
2013-10-18 09:58:00,60.0,34.3,29.57,South,184,2.0,2.0,38,0.00,,,0.25,Wunderground v.1.15,2013-10-18 13:58:00,
2013-10-18 10:08:00,60.1,33.7,29.57,SW,227,2.0,2.0,37,0.00,,,0.25,Wunderground v.1.15,2013-10-18 14:08:00,
2013-10-18 10:18:00,59.6,39.9,29.57,WSW,257,6.0,14.0,48,0.00,,,0.25,Wunderground v.1.15,2013-10-18 14:18:00,
2013-10-18 10:23:00,59.4,44.6,29.57,WSW,240,10.0,14.0,58,0.00,,,0.25,Wunderground v.1.15,2013-10-18 14:23:00,
2013-10-18 10:33:00,59.5,53.7,29.58,WSW,246,8.0,13.0,81,0.00,,,0.25,Wunderground v.1.15,2013-10-18 14:33:00,
2013-10-18 10:43:00,59.1,52.9,29.58,West,261,10.0,12.0,80,0.00,,,0.25,Wunderground v.1.15,2013-10-18 14:43:00,
2013-10-18 10:53:00,58.9,56.3,29.59,West,272,12.0,12.0,91,0.00,,,0.25,Wunderground v.1.15,2013-10-18 14:53:00,
2013-10-18 11:03:00,59.0,56.1,29.59,WNW,286,10.0,18.0,90,0.00,,,0.25,Wunderground v.1.15,2013-10-18 15:03:00,
2013-10-18 11:13:00,59.3,56.4,29.60,NW,304,10.0,12.0,90,0.00,,,0.25,Wunderground v.1.15,2013-10-18 15:13:00,
2013-10-18 11:23:00,59.4,55.8,29.60,WSW,254,10.0,10.0,88,0.00,,,0.25,Wunderground v.1.15,2013-10-18 15:23:00,
2013-10-18 11:28:00,59.5,55.3,29.60,West,277,12.0,12.0,86,0.00,,,0.25,Wunderground v.1.15,2013-10-18 15:28:00,
2013-10-18 11:38:00,60.2,56.6,29.60,SW,233,8.0,8.0,88,0.00,,,0.25,Wunderground v.1.15,2013-10-18 15:38:00,
2013-10-18 11:48:00,60.7,55.8,29.60,SW,218,9.0,9.0,84,0.00,,,0.25,Wunderground v.1.15,2013-10-18 15:48:00,
2013-10-18 11:53:00,60.8,55.9,29.60,West,259,13.0,15.0,84,0.00,,,0.25,Wunderground v.1.15,2013-10-18 15:53:00,
2013-10-18 11:58:00,61.1,55.6,29.60,West,277,14.0,16.0,82,0.00,,,0.25,Wunderground v.1.15,2013-10-18 15:58:00,
2013-10-18 12:03:00,61.6,56.4,29.60,West,265,12.0,16.0,83,0.00,,,0.25,Wunderground v.1.15,2013-10-18 16:03:00,
2013-10-18 12:13:00,62.3,55.0,29.60,WNW,296,13.0,21.0,77,0.00,,,0.25,Wunderground v.1.15,2013-10-18 16:13:00,
2013-10-18 12:23:00,62.7,55.4,29.61,West,275,15.0,16.0,77,0.00,,,0.25,Wunderground v.1.15,2013-10-18 16:23:00,
2013-10-18 12:33:00,63.4,55.7,29.61,WSW,256,13.0,17.0,76,0.00,,,0.25,Wunderground v.1.15,2013-10-18 16:33:00,
2013-10-18 12:38:00,63.2,54.8,29.60,West,267,14.0,17.0,74,0.00,,,0.25,Wunderground v.1.15,2013-10-18 16:38:00,
2013-10-18 12:48:00,64.0,55.5,29.60,NW,306,10.0,10.0,74,0.00,,,0.25,Wunderground v.1.15,2013-10-18 16:48:00,
2013-10-18 12:53:00,64.1,54.9,29.60,West,273,12.0,12.0,72,0.00,,,0.25,Wunderground v.1.15,2013-10-18 16:53:00,
2013-10-18 12:58:00,64.3,54.3,29.60,West,277,14.0,15.0,70,0.00,,,0.25,Wunderground v.1.15,2013-10-18 16:58:00,
2013-10-18 13:03:00,64.1,53.7,29.60,West,277,14.0,15.0,69,0.00,,,0.25,Wunderground v.1.15,2013-10-18 17:03:00,
2013-10-18 13:08:00,64.2,53.8,29.60,West,263,15.0,15.0,69,0.00,,,0.25,Wunderground v.1.15,2013-10-18 17:08:00,
2013-10-18 13:13:00,64.4,53.6,29.61,WNW,297,16.0,19.0,68,0.00,,,0.25,Wunderground v.1.15,2013-10-18 17:13:00,
2013-10-18 13:23:00,65.0,52.5,29.61,NW,305,16.0,16.0,64,0.00,,,0.25,Wunderground v.1.15,2013-10-18 17:23:00,
2013-10-18 13:28:00,65.2,52.3,29.61,West,269,17.0,18.0,63,0.00,,,0.25,Wunderground v.1.15,2013-10-18 17:28:00,
2013-10-18 13:33:00,65.4,52.0,29.61,West,259,16.0,32.0,62,0.00,,,0.25,Wunderground v.1.15,2013-10-18 17:33:00,
2013-10-18 13:38:00,65.4,51.1,29.61,WNW,286,16.0,24.0,60,0.00,,,0.25,Wunderground v.1.15,2013-10-18 17:38:00,
2013-10-18 13:43:00,65.4,51.1,29.62,WNW,286,18.0,24.0,60,0.00,,,0.25,Wunderground v.1.15,2013-10-18 17:43:00,
2013-10-18 13:53:00,66.0,52.6,29.62,West,268,9.0,14.0,62,0.00,,,0.25,Wunderground v.1.15,2013-10-18 17:53:00,
2013-10-18 13:58:00,66.0,52.2,29.63,West,269,11.0,11.0,61,0.00,,,0.25,Wunderground v.1.15,2013-10-18 17:58:00,
2013-10-18 14:08:00,66.2,53.2,29.63,SW,232,12.0,12.0,63,0.00,,,0.25,Wunderground v.1.15,2013-10-18 18:08:00,
2013-10-18 14:18:00,66.0,51.3,29.62,West,270,11.0,18.0,59,0.00,,,0.25,Wunderground v.1.15,2013-10-18 18:18:00,
2013-10-18 14:23:00,65.6,51.3,29.63,WNW,288,13.0,18.0,60,0.00,,,0.25,Wunderground v.1.15,2013-10-18 18:23:00,
2013-10-18 14:33:00,65.9,52.5,29.64,West,276,9.0,14.0,62,0.00,,,0.25,Wunderground v.1.15,2013-10-18 18:33:00,
2013-10-18 14:38:00,66.0,51.3,29.63,SW,233,11.0,11.0,59,0.00,,,0.25,Wunderground v.1.15,2013-10-18 18:38:00,
2013-10-18 14:43:00,66.1,50.4,29.63,WSW,246,13.0,13.0,57,0.00,,,0.25,Wunderground v.1.15,2013-10-18 18:43:00,
2013-10-18 14:53:00,66.3,50.6,29.64,WSW,254,12.0,15.0,57,0.00,,,0.25,Wunderground v.1.15,2013-10-18 18:53:00,
2013-10-18 15:03:00,66.3,50.6,29.64,WSW,254,12.0,16.0,57,0.00,,,0.25,Wunderground v.1.15,2013-10-18 19:03:00,
2013-10-18 15:08:00,66.5,50.3,29.64,West,267,11.0,13.0,56,0.00,,,0.25,Wunderground v.1.15,2013-10-18 19:08:00,
2013-10-18 15:13:00,66.4,50.2,29.64,West,272,9.0,21.0,56,0.00,,,0.25,Wunderground v.1.15,2013-10-18 19:13:00,
2013-10-18 15:23:00,65.7,50.0,29.65,West,275,12.0,12.0,57,0.00,,,0.25,Wunderground v.1.15,2013-10-18 19:23:00,
2013-10-18 15:28:00,65.8,49.2,29.65,NW,311,10.0,11.0,55,0.00,,,0.25,Wunderground v.1.15,2013-10-18 19:28:00,
2013-10-18 15:38:00,66.1,49.5,29.65,West,270,9.0,21.0,55,0.00,,,0.25,Wunderground v.1.15,2013-10-18 19:38:00,
2013-10-18 15:48:00,66.0,49.4,29.65,WNW,302,10.0,10.0,55,0.00,,,0.25,Wunderground v.1.15,2013-10-18 19:48:00,
2013-10-18 15:58:00,66.1,50.4,29.65,West,273,6.0,6.0,57,0.00,,,0.25,Wunderground v.1.15,2013-10-18 19:58:00,
2013-10-18 16:08:00,65.9,49.3,29.66,WNW,291,9.0,14.0,55,0.00,,,0.25,Wunderground v.1.15,2013-10-18 20:08:00,
2013-10-18 16:18:00,65.5,49.4,29.66,West,279,9.0,11.0,56,0.00,,,0.25,Wunderground v.1.15,2013-10-18 20:18:00,
2013-10-18 16:28:00,64.5,49.4,29.66,SW,234,6.0,6.0,58,0.00,,,0.25,Wunderground v.1.15,2013-10-18 20:28:00,
2013-10-18 16:33:00,64.2,49.6,29.67,WNW,283,5.0,6.0,59,0.00,,,0.25,Wunderground v.1.15,2013-10-18 20:33:00,
2013-10-18 16:38:00,63.9,49.7,29.67,West,259,5.0,5.0,60,0.00,,,0.25,Wunderground v.1.15,2013-10-18 20:38:00,
2013-10-18 16:43:00,63.8,49.6,29.67,West,265,5.0,5.0,60,0.00,,,0.25,Wunderground v.1.15,2013-10-18 20:43:00,
2013-10-18 16:48:00,63.9,49.7,29.67,West,272,4.0,6.0,60,0.00,,,0.25,Wunderground v.1.15,2013-10-18 20:48:00,
2013-10-18 16:53:00,63.9,50.2,29.67,SW,225,3.0,6.0,61,0.00,,,0.25,Wunderground v.1.15,2013-10-18 20:53:00,
2013-10-18 17:03:00,63.8,49.6,29.68,WSW,245,2.0,5.0,60,0.00,,,0.25,Wunderground v.1.15,2013-10-18 21:03:00,
2013-10-18 17:08:00,63.8,50.1,29.68,WSW,244,2.0,2.0,61,0.00,,,0.25,Wunderground v.1.15,2013-10-18 21:08:00,
2013-10-18 17:13:00,63.7,50.0,29.69,SSW,207,1.0,2.0,61,0.00,,,0.25,Wunderground v.1.15,2013-10-18 21:13:00,
2013-10-18 17:18:00,63.6,49.9,29.69,SW,225,0.0,0.0,61,0.00,,,0.25,Wunderground v.1.15,2013-10-18 21:18:00,
2013-10-18 17:23:00,63.4,50.1,29.69,WSW,237,0.0,0.0,62,0.00,,,0.25,Wunderground v.1.15,2013-10-18 21:23:00,
2013-10-18 17:33:00,63.0,49.3,29.69,SW,236,1.0,3.0,61,0.00,,,0.25,Wunderground v.1.15,2013-10-18 21:33:00,
2013-10-18 17:38:00,62.8,49.6,29.69,SW,236,2.0,2.0,62,0.00,,,0.25,Wunderground v.1.15,2013-10-18 21:38:00,
2013-10-18 17:48:00,62.1,49.4,29.69,WSW,245,1.0,1.0,63,0.00,,,0.25,Wunderground v.1.15,2013-10-18 21:48:00,
2013-10-18 17:53:00,61.7,49.4,29.70,WSW,257,0.0,1.0,64,0.00,,,0.25,Wunderground v.1.15,2013-10-18 21:53:00,
2013-10-18 17:58:00,61.4,49.1,29.70,SW,236,0.0,0.0,64,0.00,,,0.25,Wunderground v.1.15,2013-10-18 21:58:00,
2013-10-18 18:03:00,61.2,48.9,29.70,WSW,238,0.0,0.0,64,0.00,,,0.25,Wunderground v.1.15,2013-10-18 22:03:00,
2013-10-18 18:08:00,60.9,49.1,29.71,SW,222,0.0,0.0,65,0.00,,,0.25,Wunderground v.1.15,2013-10-18 22:08:00,
2013-10-18 18:13:00,60.4,49.0,29.71,SW,222,0.0,0.0,66,0.00,,,0.25,Wunderground v.1.15,2013-10-18 22:13:00,
2013-10-18 18:18:00,60.1,48.7,29.71,SSW,205,0.0,0.0,66,0.00,,,0.25,Wunderground v.1.15,2013-10-18 22:18:00,
2013-10-18 18:23:00,60.0,49.0,29.71,SSW,200,0.0,0.0,67,0.00,,,0.25,Wunderground v.1.15,2013-10-18 22:23:00,
2013-10-18 18:28:00,59.7,48.7,29.71,SW,223,0.0,0.0,67,0.00,,,0.25,Wunderground v.1.15,2013-10-18 22:28:00,
2013-10-18 18:38:00,59.4,48.8,29.71,WSW,240,0.0,0.0,68,0.00,,,0.25,Wunderground v.1.15,2013-10-18 22:38:00,
2013-10-18 18:43:00,59.2,48.6,29.71,WSW,237,0.0,0.0,68,0.00,,,0.25,Wunderground v.1.15,2013-10-18 22:43:00,
2013-10-18 18:53:00,58.8,48.3,29.72,WSW,240,0.0,0.0,68,0.00,,,0.25,Wunderground v.1.15,2013-10-18 22:53:00,
2013-10-18 18:58:00,58.5,48.4,29.72,WSW,240,0.0,0.0,69,0.00,,,0.25,Wunderground v.1.15,2013-10-18 22:58:00,
2013-10-18 19:08:00,58.1,48.0,29.72,SW,236,0.0,0.0,69,0.00,,,0.25,Wunderground v.1.15,2013-10-18 23:08:00,
2013-10-18 19:13:00,57.8,48.1,29.72,WSW,237,0.0,0.0,70,0.00,,,0.25,Wunderground v.1.15,2013-10-18 23:13:00,
2013-10-18 19:23:00,57.0,48.1,29.72,WSW,237,0.0,0.0,72,0.00,,,0.25,Wunderground v.1.15,2013-10-18 23:23:00,
2013-10-18 19:28:00,57.1,48.2,29.72,WSW,249,0.0,0.0,72,0.00,,,0.25,Wunderground v.1.15,2013-10-18 23:28:00,
2013-10-18 19:38:00,56.9,48.3,29.73,WSW,248,0.0,0.0,73,0.00,,,0.25,Wunderground v.1.15,2013-10-18 23:38:00,
2013-10-18 19:48:00,56.7,48.1,29.73,WSW,244,0.0,0.0,73,0.00,,,0.25,Wunderground v.1.15,2013-10-18 23:48:00,
2013-10-18 19:53:00,56.6,48.0,29.73,WSW,245,0.0,0.0,73,0.00,,,0.25,Wunderground v.1.15,2013-10-18 23:53:00,
2013-10-18 19:58:00,56.6,48.4,29.73,WSW,242,0.0,0.0,74,0.00,,,0.25,Wunderground v.1.15,2013-10-18 23:58:00,
2013-10-18 20:03:00,56.5,48.3,29.73,WSW,237,0.0,0.0,74,0.00,,,0.25,Wunderground v.1.15,2013-10-19 00:03:00,
2013-10-18 20:08:00,56.4,48.2,29.74,WSW,237,0.0,0.0,74,0.00,,,0.25,Wunderground v.1.15,2013-10-19 00:08:00,
2013-10-18 20:18:00,56.1,48.3,29.74,SSE,148,0.0,0.0,75,0.00,,,0.25,Wunderground v.1.15,2013-10-19 00:18:00,
2013-10-18 20:23:00,55.8,48.3,29.74,SSE,153,0.0,0.0,76,0.00,,,0.25,Wunderground v.1.15,2013-10-19 00:23:00,
2013-10-18 20:28:00,55.6,48.5,29.75,South,178,0.0,0.0,77,0.00,,,0.25,Wunderground v.1.15,2013-10-19 00:28:00,
2013-10-18 20:38:00,55.8,48.7,29.76,SSW,200,1.0,2.0,77,0.00,,,0.25,Wunderground v.1.15,2013-10-19 00:38:00,
2013-10-18 20:43:00,56.0,48.9,29.76,SSW,201,2.0,2.0,77,0.00,,,0.25,Wunderground v.1.15,2013-10-19 00:43:00,
2013-10-18 20:53:00,56.1,49.0,29.76,SSW,210,0.0,1.0,77,0.00,,,0.25,Wunderground v.1.15,2013-10-19 00:53:00,
2013-10-18 21:03:00,56.0,48.9,29.77,SW,218,0.0,1.0,77,0.00,,,0.25,Wunderground v.1.15,2013-10-19 01:03:00,
2013-10-18 21:08:00,56.3,48.5,29.77,SW,215,1.0,1.0,75,0.00,,,0.25,Wunderground v.1.15,2013-10-19 01:08:00,
2013-10-18 21:13:00,56.7,48.5,29.77,SW,229,1.0,1.0,74,0.00,,,0.25,Wunderground v.1.15,2013-10-19 01:13:00,
2013-10-18 21:23:00,56.8,48.2,29.77,SW,223,0.0,1.0,73,0.00,,,0.25,Wunderground v.1.15,2013-10-19 01:23:00,
2013-10-18 21:33:00,56.7,48.5,29.77,SSW,207,0.0,0.0,74,0.00,,,0.25,Wunderground v.1.15,2013-10-19 01:33:00,
2013-10-18 21:38:00,56.4,48.6,29.77,SSW,213,0.0,0.0,75,0.00,,,0.25,Wunderground v.1.15,2013-10-19 01:38:00,
2013-10-18 21:48:00,55.9,48.8,29.77,WSW,242,0.0,0.0,77,0.00,,,0.25,Wunderground v.1.15,2013-10-19 01:48:00,
2013-10-18 21:53:00,55.6,48.8,29.77,WSW,244,0.0,2.0,78,0.00,,,0.25,Wunderground v.1.15,2013-10-19 01:53:00,
2013-10-18 21:58:00,55.4,48.7,29.78,SW,221,1.0,1.0,78,0.00,,,0.25,Wunderground v.1.15,2013-10-19 01:58:00,
2013-10-18 22:08:00,55.1,48.7,29.77,WSW,246,0.0,0.0,79,0.00,,,0.25,Wunderground v.1.15,2013-10-19 02:08:00,
2013-10-18 22:18:00,54.9,48.8,29.78,WSW,254,0.0,0.0,80,0.00,,,0.25,Wunderground v.1.15,2013-10-19 02:18:00,
2013-10-18 22:23:00,54.9,48.8,29.78,SW,233,1.0,1.0,80,0.00,,,0.25,Wunderground v.1.15,2013-10-19 02:23:00,
2013-10-18 22:33:00,54.6,48.9,29.78,SW,234,0.0,1.0,81,0.00,,,0.25,Wunderground v.1.15,2013-10-19 02:33:00,
2013-10-18 22:38:00,54.5,48.8,29.78,WSW,240,0.0,0.0,81,0.00,,,0.25,Wunderground v.1.15,2013-10-19 02:38:00,
2013-10-18 22:43:00,54.2,48.8,29.78,SW,227,0.0,0.0,82,0.00,,,0.25,Wunderground v.1.15,2013-10-19 02:43:00,
2013-10-18 22:48:00,54.1,48.7,29.78,WSW,238,0.0,0.0,82,0.00,,,0.25,Wunderground v.1.15,2013-10-19 02:48:00,
2013-10-18 22:53:00,54.1,48.7,29.78,SW,226,0.0,0.0,82,0.00,,,0.25,Wunderground v.1.15,2013-10-19 02:53:00,
2013-10-18 23:03:00,53.8,48.8,29.79,SSW,196,0.0,1.0,83,0.00,,,0.25,Wunderground v.1.15,2013-10-19 03:03:00,
2013-10-18 23:08:00,53.9,48.9,29.79,SSW,199,1.0,2.0,83,0.00,,,0.25,Wunderground v.1.15,2013-10-19 03:08:00,
2013-10-18 23:13:00,53.9,48.9,29.79,SSW,202,1.0,2.0,83,0.00,,,0.25,Wunderground v.1.15,2013-10-19 03:13:00,
2013-10-18 23:23:00,53.8,48.8,29.79,South,185,0.0,2.0,83,0.00,,,0.25,Wunderground v.1.15,2013-10-19 03:23:00,
2013-10-18 23:33:00,53.6,48.6,29.79,SW,217,1.0,1.0,83,0.00,,,0.25,Wunderground v.1.15,2013-10-19 03:33:00,
2013-10-18 23:38:00,53.4,48.4,29.79,SW,229,0.0,0.0,83,0.00,,,0.25,Wunderground v.1.15,2013-10-19 03:38:00,
2013-10-18 23:48:00,53.6,48.2,29.79,SW,233,1.0,2.0,82,0.00,,,0.25,Wunderground v.1.15,2013-10-19 03:48:00,
2013-10-18 23:58:00,53.5,48.1,29.80,West,264,2.0,2.0,82,0.00,,,0.00,Wunderground v.1.15,2013-10-19 03:58:00,